SL-16 DEB

Satellite information

Favourite Embed

Satellite Type and Status

DEBRISIN ORBIT

Key statistics

Satellite SL-16 DEB at a glance.

Uptime

12002

Days in orbit

Revolutions

≈ 14.1

Per day

Orbit

LEO

Low Earth Orbit

Inclination

71.1

Latest

Satellite identification and parameters

Extended collection of information and parameters for SL-16 DEB.

Object identification

Identified? True

Debris? True

Object name: SL-16 DEB

International designator: 1992-093JA

Object number (NORAD): 22665

Object ID (CCSDS): 22665

Country: COMMONWEALTH OF INDEPENDENT STATES (CIS)

Current information (Y/N): Y

RCS size: SMALL

Orbital parameters

Period: 102.318 minutes

Inclination: 71.0757 deg

SMA: 7246.475 km

Apoapsis: 915.836 km

Periapsis: 820.844 km

RAAN: 102.5245 deg

Eccentricy: 0.00655442

Argument of periapsis: 96.7624 deg

Mean anomaly: 279.7287 deg

Mean motion: 14.07383833 rev/day

Mean motion (dot): 0.00000857 rev/day2

B* drag term: 0.00052632044 1/REarth

Two-line elements (TLE)

Creation date: Nov. 2, 2025, 5:34 p.m.

Reference frame: TEME

Reference center: EARTH

Epoch: Nov. 1, 2025, 4:42 p.m. UTC

TLE line 0: 0 SL-16 DEB

TLE line 1: 1 22665U 92093JA 25305.69596898 .00000857 00000-0 52632-3 0 9990

TLE line 2: 2 22665 71.0757 102.5245 0065544 96.7624 279.7287 14.07383833669820

Live tracking on map

Real-time ground track for satellite SL-16 DEB.

In-orbit conjunctions

A list of the most updated potential collisions computed for object SL-16 DEB.

Target Orbit TCA Probability of collision Miss distance Type
CZ-6A DEB SSO 2025-03-09 17:18:25 0.0002227403 96.0 (m) DEBRIS

Associated space launch

Second generation ELING satellite

SL-16 DEB was lifted into orbit during the mission ‘Zenit-2 | Tselina-2 12’, on board a Zenit-2 space rocket.

The launch took place on Dec. 25, 1992, 5:56 a.m. from 45/1.

For more information about the launch, click the button.

Launch to space Zenit-2 | Tselina-2 12
Zenit-2 | Tselina-2 12

Agency: N/A

Status: Launch Successful

Launch date: Dec. 25, 1992, 5:56 a.m. UTC

Rocket: Zenit-2

Launch pad: 45/1

Location: Baikonur Cosmodrome, Republic of Kazakhstan

...

Latest news about this satellite

There are no fresh news available about this satellite. Check back as we update our databases every day.


Newsletter sign-up

Weekly statistics, charts and insights to help you stay on top of the space industry.